This is the latest recevied weather packets stored in our database for station/object YF9UAG-17. If no packets are shown the sender has not sent any weather packets the latest 10 day(s).
| Time | Temp. | Humidity | Pressure | Rain* | Wind** | Luminosity | Snow |
|---|---|---|---|---|---|---|---|
| 1787741625 | 31.11° C | 53% | 1032.7 hPa | - | - | - | - |
| 1787741022 | 31.11° C | 54% | 1032.5 hPa | - | - | - | - |
| 1787740419 | 31.67° C | 53% | 1032.4 hPa | - | - | - | - |
| 1787739816 | 31.11° C | 53% | 1032.3 hPa | - | - | - | - |
| 1787739213 | 31.67° C | 52% | 1032.1 hPa | - | - | - | - |
| 1787738609 | 31.67° C | 51% | 1032 hPa | - | - | - | - |
| 1787738006 | 31.67° C | 51% | 1031.9 hPa | - | - | - | - |
| 1787737403 | 31.67° C | 51% | 1031.5 hPa | - | - | - | - |
| 1787736800 | 31.67° C | 50% | 1031.6 hPa | - | - | - | - |
| 1787736196 | 31.67° C | 50% | 1031.6 hPa | - | - | - | - |
| 1787735592 | 31.67° C | 50% | 1031.5 hPa | - | - | - | - |
| 1787734988 | 31.11° C | 50% | 1031.3 hPa | - | - | - | - |
| 1787734385 | 30.56° C | 50% | 1031.2 hPa | - | - | - | - |
| 1787733782 | 30.56° C | 50% | 1031.1 hPa | - | - | - | - |
| 1787733179 | 30.56° C | 49% | 1031 hPa | - | - | - | - |
| 1787732576 | 31.67° C | 49% | 1031 hPa | - | - | - | - |
| 1787731973 | 31.67° C | 48% | 1031 hPa | - | - | - | - |
| 1787731370 | 31.11° C | 48% | 1030.8 hPa | - | - | - | - |
| 1787730767 | 30° C | 50% | 1030.9 hPa | - | - | - | - |
| 1787730163 | 30° C | 50% | 1031 hPa | - | - | - | - |
| 1787729560 | 30° C | 50% | 1030.9 hPa | - | - | - | - |
| 1787728958 | 30° C | 49% | 1030.9 hPa | - | - | - | - |
| 1787728355 | 30° C | 50% | 1031.1 hPa | - | - | - | - |
| 1787727752 | 30° C | 50% | 1031.1 hPa | - | - | - | - |
| 1787727148 | 29.44° C | 51% | 1031.2 hPa | - | - | - | - |
* Rain since midnight (hover to see other rain measurements)
** Current wind speed in m/s (hover to see current wind gust speed)